| time (UTC) | temp F | wind direction | speed knots | gust knots | rain 1hr in | rain 24hr in | rain mn in | humidity % | barometer mb |
| 20260507015551 | 84 | 302 | 0.9 | 4.3 | 0.00 | 0.00 | 0.00 | 32 | 1003.2 |
| 20260507015051 | 84 | 65 | 0.0 | 0.9 | 0.00 | 0.00 | 0.00 | 33 | 1002.9 |
| 20260507014603 | 85 | 65 | 0.0 | 0.9 | 0.00 | 0.00 | 0.00 | 32 | 1002.8 |
| 20260507014051 | 85 | 67 | 0.0 | 0.9 | 0.00 | 0.00 | 0.00 | 31 | 1002.6 |
| 20260507013550 | 85 | 68 | 0.0 | 0.9 | 0.00 | 0.00 | 0.00 | 31 | 1002.5 |
| 20260507013053 | 85 | 68 | 0.0 | 0.9 | 0.00 | 0.00 | 0.00 | 31 | 1002.5 |
| 20260507012551 | 85 | 68 | 0.0 | 0.9 | 0.00 | 0.00 | 0.00 | 31 | 1002.4 |
| 20260507012049 | 86 | 67 | 0.0 | 1.7 | 0.00 | 0.00 | 0.00 | 31 | 1002.4 |
| 20260507011549 | 86 | 64 | 0.0 | 1.7 | 0.00 | 0.00 | 0.00 | 30 | 1002.3 |
| 20260507011049 | 86 | 97 | 0.0 | 0.9 | 0.00 | 0.00 | 0.00 | 30 | 1002.3 |
| 20260507010648 | 87 | 97 | 0.0 | 0.9 | 0.00 | 0.00 | 0.00 | 30 | 1002.3 |
| 20260507010048 | 87 | 99 | 0.0 | 0.9 | 0.00 | 0.00 | 0.00 | 30 | 1002.2 |
| 20260507005548 | 88 | 99 | 0.0 | 0.9 | 0.00 | 0.00 | 0.00 | 30 | 1002.3 |
| 20260507005047 | 88 | 101 | 0.0 | 0.9 | 0.00 | 0.00 | 0.00 | 30 | 1002.2 |
| 20260507004548 | 88 | 110 | 0.0 | 0.9 | 0.00 | 0.00 | 0.00 | 29 | 1002.1 |
| 20260507004048 | 88 | 101 | 0.0 | 0.9 | 0.00 | 0.00 | 0.00 | 28 | 1002.1 |
| 20260507003548 | 89 | 82 | 0.0 | 2.6 | 0.00 | 0.00 | 0.00 | 28 | 1002.0 |
| 20260507003048 | 89 | 109 | 0.0 | 2.6 | 0.00 | 0.00 | 0.00 | 28 | 1001.9 |
| 20260507002547 | 89 | 99 | 0.0 | 5.2 | 0.00 | 0.00 | 0.00 | 27 | 1001.8 |
| 20260507002047 | 90 | 60 | 0.9 | 5.2 | 0.00 | 0.00 | 0.00 | 28 | 1001.8 |
| 20260507001553 | 90 | 101 | 0.0 | 2.6 | 0.00 | 0.00 | 0.00 | 27 | 1001.7 |
| 20260507001046 | 90 | 339 | 0.0 | 4.3 | 0.00 | 0.00 | 0.00 | 26 | 1001.6 |
| 20260507000547 | 90 | 114 | 0.0 | 5.2 | 0.00 | 0.00 | 0.00 | 27 | 1001.5 |
| 20260507000049 | 91 | 74 | 0.9 | 5.2 | 0.00 | 0.00 | 0.00 | 26 | 1001.5 |
| 20260506235546 | 91 | 111 | 0.0 | 7.0 | 0.00 | 0.00 | 0.00 | 27 | 1001.4 |
| 20260506235048 | 91 | 76 | 1.7 | 7.0 | 0.00 | 0.00 | 0.00 | 27 | 1001.2 |
| 20260506234552 | 91 | 101 | 0.0 | 3.5 | 0.00 | 0.00 | 0.00 | 27 | 1001.3 |
| 20260506234046 | 91 | 116 | 0.0 | 5.2 | 0.00 | 0.00 | 0.00 | 27 | 1001.2 |
| 20260506233546 | 91 | 139 | 0.9 | 7.0 | 0.00 | 0.00 | 0.00 | 27 | 1001.1 |
| 20260506233045 | 91 | 89 | 1.7 | 7.0 | 0.00 | 0.00 | 0.00 | 27 | 1001.1 |
| 20260506232546 | 91 | 305 | 0.9 | 5.2 | 0.00 | 0.00 | 0.00 | 27 | 1001.1 |
| 20260506232044 | 91 | 59 | 0.9 | 7.0 | 0.00 | 0.00 | 0.00 | 27 | 1001.0 |
| 20260506231552 | 91 | 71 | 0.9 | 4.3 | 0.00 | 0.00 | 0.00 | 27 | 1001.0 |
| 20260506231045 | 91 | 117 | 0.0 | 3.5 | 0.00 | 0.00 | 0.00 | 26 | 1001.0 |
| 20260506230543 | 91 | 64 | 0.0 | 3.5 | 0.00 | 0.00 | 0.00 | 26 | 1001.1 |
| 20260506230054 | 91 | 116 | 0.9 | 3.5 | 0.00 | 0.00 | 0.00 | 26 | 1001.0 |
| 20260506225542 | 91 | 155 | 0.0 | 7.0 | 0.00 | 0.00 | 0.00 | 27 | 1001.1 |
| 20260506225042 | 91 | 77 | 2.6 | 7.0 | 0.00 | 0.00 | 0.00 | 27 | 1001.2 |
| 20260506224541 | 91 | 70 | 0.9 | 8.7 | 0.00 | 0.00 | 0.00 | 27 | 1001.3 |
| 20260506224040 | 91 | 110 | 1.7 | 8.7 | 0.00 | 0.00 | 0.00 | 27 | 1001.4 |
| 20260506223542 | 91 | 96 | 3.5 | 8.7 | 0.00 | 0.00 | 0.00 | 27 | 1001.4 |
| 20260506223050 | 92 | 142 | 0.9 | 8.7 | 0.00 | 0.00 | 0.00 | 27 | 1001.5 |
| 20260506222539 | 92 | 42 | 1.7 | 8.7 | 0.00 | 0.00 | 0.00 | 27 | 1001.5 |
| 20260506222038 | 91 | 89 | 0.9 | 9.6 | 0.00 | 0.00 | 0.00 | 28 | 1001.5 |
| 20260506221538 | 91 | 110 | 3.5 | 8.7 | 0.00 | 0.00 | 0.00 | 27 | 1001.6 |
| 20260506221038 | 92 | 75 | 1.7 | 8.7 | 0.00 | 0.00 | 0.00 | 26 | 1001.6 |
| 20260506220539 | 92 | 96 | 2.6 | 7.8 | 0.00 | 0.00 | 0.00 | 27 | 1001.6 |
| 20260506220038 | 92 | 116 | 0.9 | 5.2 | 0.00 | 0.00 | 0.00 | 27 | 1001.8 |
| 20260506215541 | 92 | 117 | 0.9 | 6.1 | 0.00 | 0.00 | 0.00 | 26 | 1001.8 |
| 20260506215035 | 92 | 110 | 2.6 | 9.6 | 0.00 | 0.00 | 0.00 | 27 | 1002.0 |
| 20260506214536 | 92 | 67 | 3.5 | 9.6 | 0.00 | 0.00 | 0.00 | 28 | 1001.9 |
| 20260506214036 | 92 | 96 | 3.5 | 9.6 | 0.00 | 0.00 | 0.00 | 26 | 1002.0 |
| 20260506213534 | 92 | 92 | 3.5 | 8.7 | 0.00 | 0.00 | 0.00 | 27 | 1002.0 |
| 20260506213045 | 92 | 237 | 0.0 | 6.1 | 0.00 | 0.00 | 0.00 | 26 | 1002.1 |
| 20260506212533 | 92 | 56 | 0.9 | 7.8 | 0.00 | 0.00 | 0.00 | 26 | 1002.3 |
| 20260506212038 | 92 | 27 | 2.6 | 7.8 | 0.00 | 0.00 | 0.00 | 27 | 1002.2 |
| 20260506211542 | 92 | 15 | 0.9 | 10.4 | 0.00 | 0.00 | 0.00 | 27 | 1002.4 |
| 20260506211030 | 92 | 125 | 2.6 | 10.4 | 0.00 | 0.00 | 0.00 | 27 | 1002.4 |
| 20260506210528 | 91 | 98 | 1.7 | 12.2 | 0.00 | 0.00 | 0.00 | 27 | 1002.5 |
| 20260506210033 | 91 | 84 | 0.9 | 12.2 | 0.00 | 0.00 | 0.00 | 27 | 1002.6 |
| 20260506205526 | 91 | 127 | 0.9 | 9.6 | 0.00 | 0.00 | 0.00 | 28 | 1002.5 |
| 20260506205026 | 91 | 110 | 1.7 | 7.0 | 0.00 | 0.00 | 0.00 | 27 | 1002.7 |
| 20260506204526 | 91 | 136 | 0.0 | 9.6 | 0.00 | 0.00 | 0.00 | 28 | 1002.7 |
| 20260506204025 | 91 | 86 | 3.5 | 9.6 | 0.00 | 0.00 | 0.00 | 27 | 1002.8 |
| 20260506203523 | 91 | 283 | 0.9 | 10.4 | 0.00 | 0.00 | 0.00 | 27 | 1002.8 |
| 20260506203028 | 91 | 90 | 2.6 | 10.4 | 0.00 | 0.00 | 0.00 | 27 | 1003.0 |
| 20260506202521 | 91 | 170 | 1.7 | 10.4 | 0.00 | 0.00 | 0.00 | 27 | 1003.2 |
| 20260506202024 | 90 | 142 | 0.9 | 10.4 | 0.00 | 0.00 | 0.00 | 28 | 1003.3 |
| 20260506201531 | 91 | 103 | 3.5 | 9.6 | 0.00 | 0.00 | 0.00 | 27 | 1003.4 |
| 20260506201019 | 90 | 63 | 3.5 | 8.7 | 0.00 | 0.00 | 0.00 | 26 | 1003.5 |
| 20260506200518 | 90 | 98 | 2.6 | 8.7 | 0.00 | 0.00 | 0.00 | 28 | 1003.6 |
| 20260506200017 | 91 | 96 | 2.6 | 7.8 | 0.00 | 0.00 | 0.00 | 27 | 1003.7 |
| 20260506195517 | 90 | 96 | 2.6 | 8.7 | 0.00 | 0.00 | 0.00 | 28 | 1003.9 |
| 20260506195016 | 90 | 126 | 2.6 | 10.4 | 0.00 | 0.00 | 0.00 | 27 | 1004.0 |
| 20260506194515 | 90 | 80 | 4.3 | 10.4 | 0.00 | 0.00 | 0.00 | 27 | 1004.0 |
| 20260506194014 | 90 | 96 | 4.3 | 10.4 | 0.00 | 0.00 | 0.00 | 27 | 1004.3 |
| 20260506193514 | 90 | 120 | 2.6 | 13.9 | 0.00 | 0.00 | 0.00 | 27 | 1004.4 |
| 20260506193012 | 90 | 81 | 0.9 | 9.6 | 0.00 | 0.00 | 0.00 | 27 | 1004.6 |
| 20260506192511 | 90 | 224 | 3.5 | 10.4 | 0.00 | 0.00 | 0.00 | 27 | 1004.6 |
| 20260506192010 | 89 | 61 | 4.3 | 10.4 | 0.00 | 0.00 | 0.00 | 27 | 1004.7 |
| 20260506191509 | 89 | 104 | 1.7 | 9.6 | 0.00 | 0.00 | 0.00 | 27 | 1004.9 |
| 20260506191011 | 89 | 146 | 2.6 | 8.7 | 0.00 | 0.00 | 0.00 | 26 | 1005.0 |
| 20260506190507 | 89 | 94 | 2.6 | 9.6 | 0.00 | 0.00 | 0.00 | 27 | 1005.1 |
| 20260506190006 | 89 | 142 | 0.9 | 9.6 | 0.00 | 0.00 | 0.00 | 27 | 1005.4 |
| 20260506185504 | 89 | 79 | 1.7 | 9.6 | 0.00 | 0.00 | 0.00 | 27 | 1005.5 |
| 20260506185004 | 89 | 53 | 1.7 | 8.7 | 0.00 | 0.00 | 0.00 | 27 | 1005.7 |
| 20260506184504 | 89 | 110 | 3.5 | 8.7 | 0.00 | 0.00 | 0.00 | 26 | 1005.7 |
| 20260506184006 | 89 | 134 | 0.0 | 7.8 | 0.00 | 0.00 | 0.00 | 27 | 1005.9 |
| 20260506183502 | 89 | 46 | 2.6 | 7.8 | 0.00 | 0.00 | 0.00 | 27 | 1005.9 |
| 20260506183002 | 88 | 17 | 0.9 | 9.6 | 0.00 | 0.00 | 0.00 | 27 | 1005.9 |
| 20260506182502 | 88 | 93 | 4.3 | 9.6 | 0.00 | 0.00 | 0.00 | 27 | 1006.0 |
| 20260506182000 | 88 | 85 | 2.6 | 7.8 | 0.00 | 0.00 | 0.00 | 26 | 1006.1 |
| 20260506181601 | 88 | 114 | 1.7 | 7.8 | 0.00 | 0.00 | 0.00 | 27 | 1006.2 |
| 20260506181100 | 87 | 94 | 1.7 | 7.8 | 0.00 | 0.00 | 0.00 | 27 | 1006.3 |
| 20260506180600 | 87 | 72 | 2.6 | 7.8 | 0.00 | 0.00 | 0.00 | 27 | 1006.4 |
| 20260506180100 | 88 | 104 | 3.5 | 8.7 | 0.00 | 0.00 | 0.00 | 26 | 1006.5 |
| 20260506175558 | 88 | 109 | 1.7 | 8.7 | 0.00 | 0.00 | 0.00 | 27 | 1006.6 |
| 20260506175057 | 88 | 92 | 1.7 | 6.1 | 0.00 | 0.00 | 0.00 | 27 | 1006.6 |
| 20260506174559 | 87 | 299 | 0.0 | 7.8 | 0.00 | 0.00 | 0.00 | 27 | 1006.7 |
| 20260506174058 | 88 | 131 | 1.7 | 7.8 | 0.00 | 0.00 | 0.00 | 27 | 1006.7 |
| 20260506173557 | 88 | 262 | 0.0 | 7.0 | 0.00 | 0.00 | 0.00 | 28 | 1006.8 |
| 20260506173103 | 87 | 11 | 1.7 | 8.7 | 0.00 | 0.00 | 0.00 | 28 | 1007.0 |
| 20260506172558 | 87 | 64 | 6.1 | 8.7 | 0.00 | 0.00 | 0.00 | 28 | 1007.0 |
| 20260506172053 | 0 | 0.0 | 0.0 | 0.00 | 0.00 | 0.00 | 1007.2 | ||
| 20260506171554 | 0 | 0.0 | 0.0 | 0.00 | 0.00 | 0.00 | 1007.2 | ||
| 20260506171053 | 0 | 0.0 | 0.0 | 0.00 | 0.00 | 0.00 | 1007.2 | ||
| 20260506170549 | 0 | 0.0 | 0.0 | 0.00 | 0.00 | 0.00 | 1007.2 | ||
| 20260506170106 | 0 | 0.0 | 0.0 | 0.00 | 0.00 | 0.00 | 1007.3 | ||
| 20260506165550 | 0 | 0.0 | 0.0 | 0.00 | 0.00 | 0.00 | 1007.3 | ||
| 20260506165048 | 0 | 0.0 | 0.0 | 0.00 | 0.00 | 0.00 | 1007.6 | ||
| 20260506164543 | 0 | 0.0 | 0.0 | 0.00 | 0.00 | 0.00 | 1007.6 | ||
| 20260506164041 | 0 | 0.0 | 0.0 | 0.00 | 0.00 | 0.00 | 1007.6 | ||
| 20260506163540 | 0 | 0.0 | 0.0 | 0.00 | 0.00 | 0.00 | 1007.5 | ||
| 20260506163046 | 0 | 0.0 | 0.0 | 0.00 | 0.00 | 0.00 | 1007.5 | ||
| 20260506162538 | 0 | 0.0 | 0.0 | 0.00 | 0.00 | 0.00 | 1007.6 | ||
| 20260506162038 | 0 | 0.0 | 0.0 | 0.00 | 0.00 | 0.00 | 1007.7 | ||
| 20260506161535 | 0 | 0.0 | 0.0 | 0.00 | 0.00 | 0.00 | 1007.7 | ||
| 20260506161032 | 0 | 0.0 | 0.0 | 0.00 | 0.00 | 0.00 | 1007.7 | ||
| 20260506160530 | 0 | 0.0 | 0.0 | 0.00 | 0.00 | 0.00 | 1007.8 | ||
| 20260506160030 | 0 | 0.0 | 0.0 | 0.00 | 0.00 | 0.00 | 1007.7 | ||
| 20260506155529 | 0 | 0.0 | 0.0 | 0.00 | 0.00 | 0.00 | 1007.7 | ||
| 20260506155026 | 0 | 0.0 | 0.0 | 0.00 | 0.00 | 0.00 | 1007.7 | ||
| 20260506154527 | 0 | 0.0 | 0.0 | 0.00 | 0.00 | 0.00 | 1007.8 | ||
| 20260506154024 | 0 | 0.0 | 0.0 | 0.00 | 0.00 | 0.00 | 1007.7 | ||
| 20260506153523 | 0 | 0.0 | 0.0 | 0.00 | 0.00 | 0.00 | 1007.7 | ||
| 20260506153021 | 0 | 0.0 | 0.0 | 0.00 | 0.00 | 0.00 | 1007.8 | ||
| 20260506152518 | 0 | 0.0 | 0.0 | 0.00 | 0.00 | 0.00 | 1007.8 | ||
| 20260506152019 | 0 | 0.0 | 0.0 | 0.00 | 0.00 | 0.00 | 1007.7 | ||
| 20260506151518 | 0 | 0.0 | 0.0 | 0.00 | 0.00 | 0.00 | 1007.7 | ||
| 20260506151014 | 0 | 0.0 | 0.0 | 0.00 | 0.00 | 0.00 | 1007.7 | ||
| 20260506150512 | 0 | 0.0 | 0.0 | 0.00 | 0.00 | 0.00 | 1007.7 | ||
| 20260506150011 | 0 | 0.0 | 0.0 | 0.00 | 0.00 | 0.00 | 1007.7 | ||
| 20260506145511 | 0 | 0.0 | 0.0 | 0.00 | 0.00 | 0.00 | 1007.8 | ||
| 20260506145008 | 0 | 0.0 | 0.0 | 0.00 | 0.00 | 0.00 | 1007.6 | ||
| 20260506144506 | 0 | 0.0 | 0.0 | 0.00 | 0.00 | 0.00 | 1007.6 | ||
| 20260506144005 | 0 | 0.0 | 0.0 | 0.00 | 0.00 | 0.00 | 1007.6 | ||
| 20260506143504 | 0 | 0.0 | 0.0 | 0.00 | 0.00 | 0.00 | 1007.7 | ||
| 20260506143005 | 0 | 0.0 | 0.0 | 0.00 | 0.00 | 0.00 | 1007.7 | ||
| 20260506142501 | 0 | 0.0 | 0.0 | 0.00 | 0.00 | 0.00 | 1007.7 | ||
| 20260506142102 | 0 | 0.0 | 0.0 | 0.00 | 0.00 | 0.00 | 1007.5 | ||
| 20260506141558 | 0 | 0.0 | 0.0 | 0.00 | 0.00 | 0.00 | 1007.5 | ||
| 20260506141057 | 0 | 0.0 | 0.0 | 0.00 | 0.00 | 0.00 | 1007.5 | ||
| 20260506140557 | 0 | 0.0 | 0.0 | 0.00 | 0.00 | 0.00 | 1007.6 | ||
| 20260506140054 | 0 | 0.0 | 0.0 | 0.00 | 0.00 | 0.00 | 1007.4 | ||
| 20260506135552 | 0 | 0.0 | 0.0 | 0.00 | 0.00 | 0.00 | 1007.2 | ||
| 20260506135050 | 0 | 0.0 | 0.0 | 0.00 | 0.00 | 0.00 | 1007.3 | ||
| 20260506134550 | 0 | 0.0 | 0.0 | 0.00 | 0.00 | 0.00 | 1007.3 | ||
| 20260506134049 | 0 | 0.0 | 0.0 | 0.00 | 0.00 | 0.00 | 1007.3 | ||
| 20260506133548 | 0 | 0.0 | 0.0 | 0.00 | 0.00 | 0.00 | 1007.4 | ||
| 20260506133045 | 0 | 0.0 | 0.0 | 0.00 | 0.00 | 0.00 | 1007.1 | ||
| 20260506132543 | 0 | 0.0 | 0.0 | 0.00 | 0.00 | 0.00 | 1007.1 | ||
| 20260506132047 | 0 | 0.0 | 0.0 | 0.00 | 0.00 | 0.00 | 1007.1 | ||
| 20260506131541 | 0 | 0.0 | 0.0 | 0.00 | 0.00 | 0.00 | 1007.1 | ||
| 20260506131041 | 0 | 0.0 | 0.0 | 0.00 | 0.00 | 0.00 | 1007.0 | ||
| 20260506130538 | 0 | 0.0 | 0.0 | 0.00 | 0.00 | 0.00 | 1006.9 | ||
| 20260506130037 | 0 | 0.0 | 0.0 | 0.00 | 0.00 | 0.00 | 1006.8 | ||
| 20260506125534 | 0 | 0.0 | 0.0 | 0.00 | 0.00 | 0.00 | 1006.9 | ||
| 20260506125033 | 0 | 0.0 | 0.0 | 0.00 | 0.00 | 0.00 | 1006.9 | ||
| 20260506051002 | 76 | 82 | 0.0 | 2.6 | 0.00 | 0.00 | 0.00 | 41 | 1006.8 |
| 20260506050502 | 76 | 82 | 0.0 | 2.6 | 0.00 | 0.00 | 0.00 | 41 | 1006.6 |
| 20260506045002 | 76 | 159 | 0.0 | 0.9 | 0.00 | 0.00 | 0.00 | 39 | 1006.6 |
| 20260506044505 | 76 | 159 | 0.0 | 2.6 | 0.00 | 0.00 | 0.00 | 39 | 1006.6 |
| 20260506044001 | 76 | 157 | 0.0 | 2.6 | 0.00 | 0.00 | 0.00 | 38 | 1006.5 |
| 20260506043500 | 77 | 153 | 0.0 | 1.7 | 0.00 | 0.00 | 0.00 | 38 | 1006.4 |
| 20260506043106 | 77 | 158 | 0.0 | 0.0 | 0.00 | 0.00 | 0.00 | 38 | 1006.4 |
| 20260506042600 | 77 | 158 | 0.0 | 0.0 | 0.00 | 0.00 | 0.00 | 38 | 1006.3 |
| 20260506042100 | 78 | 158 | 0.0 | 0.0 | 0.00 | 0.00 | 0.00 | 37 | 1006.3 |
| 20260506041604 | 78 | 81 | 0.0 | 0.9 | 0.00 | 0.00 | 0.00 | 36 | 1006.0 |
| 20260506041100 | 78 | 81 | 0.0 | 0.9 | 0.00 | 0.00 | 0.00 | 35 | 1005.9 |
| 20260506040559 | 78 | 84 | 0.0 | 3.5 | 0.00 | 0.00 | 0.00 | 36 | 1005.8 |
| 20260506040107 | 79 | 83 | 0.0 | 3.5 | 0.00 | 0.00 | 0.00 | 36 | 1005.8 |
| 20260506035600 | 79 | 60 | 0.0 | 5.2 | 0.00 | 0.00 | 0.00 | 35 | 1005.6 |
| 20260506035059 | 79 | 326 | 0.0 | 5.2 | 0.00 | 0.00 | 0.00 | 34 | 1005.6 |
| 20260506034606 | 79 | 78 | 0.9 | 3.5 | 0.00 | 0.00 | 0.00 | 34 | 1005.5 |
| 20260506034059 | 79 | 334 | 0.0 | 5.2 | 0.00 | 0.00 | 0.00 | 34 | 1005.2 |
| 20260506033559 | 79 | 345 | 0.9 | 5.2 | 0.00 | 0.00 | 0.00 | 34 | 1005.1 |
| 20260506033059 | 79 | 289 | 0.0 | 3.5 | 0.00 | 0.00 | 0.00 | 34 | 1004.9 |
| 20260506032559 | 79 | 263 | 0.0 | 3.5 | 0.00 | 0.00 | 0.00 | 34 | 1004.9 |
| 20260506032059 | 79 | 267 | 0.0 | 0.9 | 0.00 | 0.00 | 0.00 | 34 | 1004.8 |
| 20260506031559 | 79 | 266 | 0.0 | 1.7 | 0.00 | 0.00 | 0.00 | 34 | 1004.8 |
| 20260506031057 | 79 | 301 | 0.0 | 1.7 | 0.00 | 0.00 | 0.00 | 34 | 1004.7 |
| 20260506030559 | 79 | 316 | 0.0 | 1.7 | 0.00 | 0.00 | 0.00 | 34 | 1004.7 |
| 20260506030101 | 79 | 302 | 0.0 | 1.7 | 0.00 | 0.00 | 0.00 | 35 | 1004.5 |
| 20260506025557 | 79 | 309 | 0.0 | 1.7 | 0.00 | 0.00 | 0.00 | 36 | 1004.4 |
| 20260506025057 | 79 | 317 | 0.0 | 0.0 | 0.00 | 0.00 | 0.00 | 36 | 1004.4 |
| 20260506024600 | 79 | 316 | 0.0 | 0.0 | 0.00 | 0.00 | 0.00 | 36 | 1004.3 |
| 20260506024057 | 79 | 288 | 0.0 | 0.0 | 0.00 | 0.00 | 0.00 | 36 | 1004.3 |
| 20260506023558 | 79 | 279 | 0.0 | 0.0 | 0.00 | 0.00 | 0.00 | 36 | 1004.2 |
| 20260506023056 | 80 | 279 | 0.0 | 0.9 | 0.00 | 0.00 | 0.00 | 35 | 1004.1 |
| 20260506022555 | 80 | 279 | 0.0 | 0.9 | 0.00 | 0.00 | 0.00 | 35 | 1004.0 |
| 20260506022056 | 80 | 293 | 0.0 | 0.0 | 0.00 | 0.00 | 0.00 | 35 | 1003.9 |
| 20260506021604 | 80 | 284 | 0.0 | 0.0 | 0.00 | 0.00 | 0.00 | 35 | 1003.8 |
| 20260506021056 | 80 | 284 | 0.0 | 0.9 | 0.00 | 0.00 | 0.00 | 35 | 1003.7 |
| 20260506020655 | 81 | 284 | 0.0 | 0.9 | 0.00 | 0.00 | 0.00 | 34 | 1003.5 |
| 20260506020055 | 81 | 286 | 0.0 | 0.9 | 0.00 | 0.00 | 0.00 | 34 | 1003.4 |